Location: Kershaw
(34.5481°N, 80.5823°W)
Time: 12:45:55
(UTC+00:00)

A-11 Canister half - Pass Details

Date: 07 October 2022
Orbit: 1524 x 1685 km, 47.3° (Epoch: 25 November)

Event Time Altitude Azimuth Distance (km) Brightness Sun altitude
Rises 00:16:48 0° 302° (WNW) 4,689 12.7 -16.7°
Reaches altitude 10° 00:19:58 10° 307° (NW) 3,717 11.9 -17.4°
Maximum altitude 00:29:06 52° 23° (NNE) 1,897 9.3 -19.3°
Enters shadow 00:34:13 28° 84° (E) 2,642 9.7 -20.3°
